CW4279 Weather Reports


Display with metric or nautical units.
time (UTC)temp
F
wind
direction
speed
MPH
gust
MPH
rain 1hr
in
rain 24hr
in
rain mn
in
humidity
%
barometer
mb
20260831145441 74 144 1.0 2.0 0.00 0.00 0.00 95 1041.7
20260831144937 74 124 0.0 1.0 0.00 0.00 0.00 95 1041.7
20260831144432 74 101 1.0 1.0 0.00 0.00 0.00 95 1041.9
20260831143927 74 318 1.0 2.0 0.00 0.00 0.00 95 1042.0
20260831143422 74 145 0.0 1.0 0.00 0.00 0.00 95 1041.6
20260831142918 74 106 1.0 1.0 0.00 0.00 0.00 95 1041.5
20260831142414 74 120 0.0 1.0 0.00 0.00 0.00 96 1041.5
20260831141908 73 240 0.0 1.0 0.00 0.00 0.00 96 1041.6
20260831141402 73 122 1.0 1.0 0.00 0.00 0.00 96 1041.5
20260831140857 73 155 0.0 0.0 0.00 0.00 0.00 97 1041.5
20260831140352 73 155 0.0 0.0 0.00 0.00 0.00 97 1041.4
20260831135850 73 155 0.0 0.0 0.00 0.00 0.00 97 1041.2
20260831135345 73 152 0.0 0.0 0.00 0.00 0.00 98 1041.3
20260831134841 72 145 0.0 0.0 0.00 0.00 0.00 98 1041.1
20260831134337 72 147 0.0 0.0 0.00 0.00 0.00 98 1041.0
20260831133836 72 148 0.0 0.0 0.00 0.00 0.00 98 1041.2
20260831133336 72 144 0.0 0.0 0.00 0.00 0.00 99 1041.1
20260831132832 71 144 0.0 0.0 0.00 0.00 0.00 99 1041.5
20260831132327 71 137 0.0 0.0 0.00 0.00 0.00 99 1041.2
20260831131826 71 159 0.0 0.0 0.00 0.00 0.00 99 1041.3
20260831131323 71 159 0.0 0.0 0.00 0.00 0.00 99 1041.3
20260831130817 71 160 0.0 0.0 0.00 0.00 0.00 99 1040.9
20260831130313 71 160 0.0 0.0 0.00 0.00 0.00 99 1040.9
20260831125812 71 159 0.0 0.0 0.00 0.00 0.00 99 1040.9
20260831125308 71 159 0.0 0.0 0.00 0.00 0.00 99 1040.9
20260831124807 71 153 0.0 0.0 0.00 0.00 0.00 99 1040.9
20260831124303 70 153 0.0 0.0 0.00 0.00 0.00 99 1040.6
20260831123758 70 153 0.0 0.0 0.00 0.00 0.00 99 1040.5
20260831123257 70 154 0.0 0.0 0.00 0.00 0.00 99 1040.5
20260831122751 70 152 0.0 0.0 0.00 0.00 0.00 99 1040.2
20260831122247 69 152 0.0 0.0 0.00 0.00 0.00 99 1039.8
20260831121746 69 152 0.0 1.0 0.00 0.00 0.00 99 1040.1
20260831121243 69 152 0.0 1.0 0.00 0.00 0.00 99 1039.8
20260831120738 69 152 0.0 0.0 0.00 0.00 0.00 99 1040.1
20260831120233 69 152 0.0 1.0 0.00 0.00 0.00 99 1040.1
20260831115728 69 152 0.0 0.0 0.00 0.00 0.00 99 1040.1
20260831115224 69 152 0.0 0.0 0.00 0.00 0.00 99 1039.9
20260831114724 69 152 0.0 1.0 0.00 0.00 0.00 99 1039.8
20260831114223 69 152 0.0 0.0 0.00 0.00 0.00 99 1039.9
20260831113719 69 152 0.0 0.0 0.00 0.00 0.00 99 1040.0
20260831113213 69 156 1.0 1.0 0.00 0.00 0.00 99 1039.7
20260831112712 69 150 0.0 0.0 0.00 0.00 0.00 99 1039.7
20260831112208 69 150 0.0 1.0 0.00 0.00 0.00 99 1039.7
20260831111704 69 150 0.0 0.0 0.00 0.00 0.00 99 1039.6
20260831111200 69 150 0.0 0.0 0.00 0.00 0.00 99 1039.7
20260831110655 69 149 1.0 1.0 0.00 0.00 0.00 99 1039.6
20260831110149 69 153 0.0 1.0 0.00 0.00 0.00 99 1039.8
20260831105648 69 153 0.0 0.0 0.00 0.00 0.00 99 1039.9
20260831105144 69 153 0.0 1.0 0.00 0.00 0.00 99 1039.7
20260831104639 70 152 0.0 1.0 0.00 0.00 0.00 99 1039.5
20260831104136 70 155 1.0 1.0 0.00 0.00 0.00 99 1039.5
20260831103631 70 153 1.0 1.0 0.00 0.00 0.00 99 1039.7
20260831103126 70 154 1.0 1.0 0.00 0.00 0.00 99 1039.7
20260831102626 70 152 0.0 1.0 0.00 0.00 0.00 99 1039.4
20260831102121 70 152 0.0 1.0 0.00 0.00 0.00 98 1039.3
20260831101621 70 153 0.0 1.0 0.00 0.00 0.00 98 1038.9
20260831101117 70 156 1.0 2.0 0.00 0.00 0.00 98 1039.0
20260831100613 70 152 1.0 1.0 0.00 0.00 0.00 98 1039.2
20260831100109 70 157 1.0 1.0 0.00 0.00 0.00 98 1039.2
20260831095607 70 153 1.0 2.0 0.00 0.00 0.00 98 1039.3
20260831095102 70 153 0.0 0.0 0.00 0.00 0.00 98 1039.2
20260831094557 70 154 1.0 1.0 0.00 0.00 0.00 98 1039.4
20260831094054 70 152 1.0 2.0 0.00 0.00 0.00 98 1039.3
20260831093549 70 153 1.0 1.0 0.00 0.00 0.00 98 1039.4
20260831093045 70 153 0.0 1.0 0.00 0.00 0.00 98 1039.5
20260831092541 70 153 0.0 1.0 0.00 0.00 0.00 97 1039.5
20260831092036 70 153 1.0 1.0 0.00 0.00 0.00 97 1039.5
20260831091536 70 153 0.0 1.0 0.00 0.00 0.00 97 1039.5
20260831091032 70 151 0.0 1.0 0.00 0.00 0.00 97 1039.5
20260831090527 70 151 0.0 1.0 0.00 0.00 0.00 96 1039.5
20260831090023 70 147 1.0 2.0 0.00 0.00 0.00 96 1039.3
20260831085518 70 149 1.0 2.0 0.00 0.00 0.00 96 1039.4
20260831085013 70 148 1.0 2.0 0.00 0.00 0.00 96 1039.2
20260831084509 70 151 1.0 2.0 0.00 0.00 0.00 96 1039.0
20260831084005 71 153 1.0 1.0 0.00 0.00 0.00 95 1039.2
20260831083500 71 150 1.0 1.0 0.00 0.00 0.00 95 1039.1
20260831082959 71 150 1.0 1.0 0.00 0.00 0.00 95 1039.3
20260831082454 71 146 1.0 2.0 0.00 0.00 0.00 95 1039.0
20260831081948 71 147 2.0 2.0 0.00 0.00 0.00 95 1039.1
20260831081444 71 161 2.0 2.0 0.00 0.00 0.00 94 1039.2
20260831080940 71 148 2.0 3.0 0.00 0.00 0.00 94 1039.1
20260831080434 71 155 1.0 2.0 0.00 0.00 0.00 94 1038.9
20260831075930 71 164 3.0 3.0 0.00 0.00 0.00 94 1039.0
20260831075426 71 150 1.0 3.0 0.00 0.00 0.00 94 1038.9
20260831074921 71 159 2.0 3.0 0.00 0.00 0.00 93 1039.0
20260831074415 71 151 1.0 2.0 0.00 0.00 0.00 94 1039.2
20260831073910 71 146 2.0 3.0 0.00 0.00 0.00 94 1039.2
20260831073409 71 158 1.0 2.0 0.00 0.00 0.00 94 1039.1
20260831072903 71 155 1.0 2.0 0.00 0.00 0.00 93 1039.1
20260831072359 71 147 1.0 3.0 0.00 0.00 0.00 93 1039.0
20260831071855 71 146 2.0 3.0 0.00 0.00 0.00 93 1039.3
20260831071354 71 165 1.0 2.0 0.00 0.00 0.00 93 1039.1
20260831070849 71 154 2.0 2.0 0.00 0.00 0.00 93 1039.4
20260831070348 71 144 1.0 2.0 0.00 0.00 0.00 93 1039.3
20260831065848 71 152 1.0 2.0 0.00 0.00 0.00 93 1039.6
20260831065345 71 149 1.0 2.0 0.00 0.00 0.00 92 1039.6
20260831064840 71 145 1.0 2.0 0.00 0.00 0.00 92 1039.6
20260831064336 71 161 1.0 2.0 0.00 0.00 0.00 92 1039.7
20260831063832 71 154 1.0 2.0 0.00 0.00 0.00 92 1039.8
20260831063327 71 149 1.0 1.0 0.00 0.00 0.00 92 1039.7
20260831062827 71 156 1.0 2.0 0.00 0.00 0.00 92 1040.1
20260831062322 71 153 1.0 2.0 0.00 0.00 0.00 92 1040.1
20260831061821 71 152 1.0 2.0 0.00 0.00 0.00 92 1040.1
20260831061320 71 148 1.0 1.0 0.00 0.00 0.00 92 1040.1
20260831060816 71 142 1.0 2.0 0.00 0.00 0.00 92 1040.2
20260831060316 71 146 1.0 2.0 0.00 0.00 0.00 92 1040.1
20260831055815 71 170 1.0 2.0 0.00 0.00 0.00 92 1040.5
20260831055311 72 143 1.0 1.0 0.00 0.00 0.00 92 1040.6
20260831054806 72 148 1.0 2.0 0.00 0.00 0.00 92 1040.2
20260831054301 72 149 1.0 1.0 0.00 0.00 0.00 92 1040.5
20260831053800 72 157 0.0 2.0 0.00 0.00 0.00 91 1040.6
20260831053259 72 149 0.0 2.0 0.00 0.00 0.00 91 1040.7
20260831052754 72 126 2.0 2.0 0.00 0.00 0.00 91 1040.6
20260831052253 72 145 1.0 2.0 0.00 0.00 0.00 91 1040.5
20260831051751 73 151 1.0 2.0 0.00 0.00 0.00 91 1040.6
20260831051250 73 151 1.0 1.0 0.00 0.00 0.00 90 1040.7
20260831050745 73 150 1.0 2.0 0.00 0.00 0.00 90 1040.8
20260831050244 73 159 2.0 2.0 0.00 0.00 0.00 91 1040.8
20260831045738 73 146 1.0 2.0 0.00 0.00 0.00 91 1040.9
20260831045233 72 153 1.0 2.0 0.00 0.00 0.00 91 1041.1
20260831044728 72 155 1.0 1.0 0.00 0.00 0.00 92 1041.2
20260831044223 72 154 0.0 1.0 0.00 0.00 0.00 92 1041.3
20260831043719 73 154 1.0 1.0 0.00 0.00 0.00 91 1041.3
20260831043214 73 154 0.0 1.0 0.00 0.00 0.00 90 1041.4
20260831042713 73 153 1.0 1.0 0.00 0.00 0.00 90 1041.3
20260831042208 73 152 0.0 1.0 0.00 0.00 0.00 90 1041.2
20260831041703 74 152 0.0 1.0 0.00 0.00 0.00 89 1040.9
20260831041202 74 149 0.0 1.0 0.00 0.00 0.00 88 1041.2
20260831040657 74 154 2.0 2.0 0.00 0.00 0.00 88 1041.2
20260831040156 74 156 1.0 3.0 0.00 0.00 0.00 88 1041.1
20260831035655 74 153 2.0 2.0 0.00 0.00 0.00 89 1041.0
20260831035150 74 152 1.0 2.0 0.00 0.00 0.00 90 1041.1
20260831034649 74 150 1.0 2.0 0.00 0.00 0.00 90 1041.1
20260831034144 74 151 1.0 1.0 0.00 0.00 0.00 90 1041.1
20260831033640 75 154 1.0 2.0 0.00 0.00 0.00 90 1041.1
20260831033134 75 153 1.0 2.0 0.00 0.00 0.00 90 1041.2
20260831032629 75 153 1.0 2.0 0.00 0.00 0.00 89 1041.1
20260831032125 75 156 2.0 2.0 0.00 0.00 0.00 90 1040.9
20260831031624 75 148 1.0 2.0 0.00 0.00 0.00 91 1040.8
20260831031124 74 147 1.0 2.0 0.00 0.00 0.00 92 1041.0
20260831030623 74 149 1.0 2.0 0.00 0.00 0.00 93 1040.9
20260831030122 74 145 0.0 1.0 0.00 0.00 0.00 93 1040.7
20260831025620 74 146 0.0 1.0 0.00 0.00 0.00 93 1041.0
20260831025115 74 151 1.0 1.0 0.00 0.00 0.00 92 1040.8
20260831024612 75 149 1.0 2.0 0.00 0.00 0.00 92 1040.9
20260831024110 75 147 1.0 2.0 0.00 0.00 0.00 92 1040.9
20260831023609 75 140 1.0 2.0 0.00 0.00 0.00 91 1040.8
20260831023108 75 122 1.0 2.0 0.00 0.00 0.00 91 1040.7
20260831022603 75 164 1.0 2.0 0.00 0.00 0.00 91 1040.6
20260831022058 75 140 1.0 3.0 0.00 0.00 0.00 91 1040.6
20260831021557 75 167 1.0 3.0 0.00 0.00 0.00 90 1040.7
20260831021053 75 154 2.0 3.0 0.00 0.00 0.00 91 1040.8
20260831020548 75 159 1.0 2.0 0.00 0.00 0.00 91 1040.7
20260831020043 75 135 1.0 2.0 0.00 0.00 0.00 91 1040.8
20260831015539 75 147 1.0 5.0 0.00 0.00 0.00 91 1040.9
20260831015033 75 137 1.0 3.0 0.00 0.00 0.00 91 1040.7
20260831014528 75 133 1.0 2.0 0.00 0.00 0.00 91 1040.6
20260831014024 75 152 0.0 2.0 0.00 0.00 0.00 90 1040.8
20260831013520 75 134 0.0 2.0 0.00 0.00 0.00 90 1040.8
20260831013014 75 116 2.0 2.0 0.00 0.00 0.00 90 1040.7
20260831012508 75 148 0.0 2.0 0.00 0.00 0.00 90 1040.5
20260831012003 75 151 0.0 5.0 0.00 0.00 0.00 90 1040.7
20260831011457 75 157 1.0 1.0 0.00 0.00 0.00 89 1040.7
20260831010953 76 159 1.0 2.0 0.00 0.00 0.00 89 1040.8
20260831010453 76 133 3.0 3.0 0.00 0.00 0.00 89 1040.7
20260831005949 76 150 0.0 3.0 0.00 0.00 0.00 88 1040.6
20260831005445 76 148 1.0 1.0 0.00 0.00 0.00 88 1040.8
20260831004944 76 151 2.0 3.0 0.00 0.00 0.00 88 1040.8
20260831004440 76 143 1.0 3.0 0.00 0.00 0.00 88 1041.0
20260831003936 76 138 0.0 3.0 0.00 0.00 0.00 88 1041.0
20260831003432 77 155 1.0 1.0 0.00 0.00 0.00 88 1041.0
20260831002931 77 128 1.0 2.0 0.00 0.00 0.00 87 1040.8
20260831002430 77 137 0.0 2.0 0.00 0.00 0.00 87 1041.0
20260831001926 77 146 1.0 2.0 0.00 0.00 0.00 86 1041.1
20260831001421 77 146 1.0 2.0 0.00 0.00 0.00 86 1041.0
20260831000919 77 321 2.0 3.0 0.00 0.00 0.00 86 1040.7
20260831000414 78 150 0.0 1.0 0.00 0.00 0.00 86 1041.0
20260830235912 78 145 1.0 5.0 0.00 0.00 0.00 85 1041.1
20260830235407 78 119 0.0 2.0 0.00 0.00 0.00 85 1041.2
20260830234903 78 90 2.0 2.0 0.00 0.00 0.00 85 1041.2
20260830234357 78 149 1.0 2.0 0.00 0.00 0.00 84 1040.9
20260830233854 78 134 1.0 5.0 0.00 0.00 0.00 84 1041.1
20260830233349 78 158 1.0 3.0 0.00 0.00 0.00 84 1041.1
20260830232844 79 61 5.0 8.0 0.00 0.00 0.00 83 1041.0
20260830232340 79 207 2.0 3.0 0.00 0.00 0.00 82 1040.9
20260830231836 79 146 1.0 3.0 0.00 0.00 0.00 82 1040.8
20260830231331 80 352 4.0 6.0 0.00 0.00 0.00 81 1041.0
20260830230830 80 139 0.0 3.0 0.00 0.00 0.00 82 1040.8
20260830230325 80 134 0.0 3.0 0.00 0.00 0.00 82 1040.9
20260830225820 80 64 2.0 2.0 0.00 0.00 0.00 82 1040.9
20260830225315 79 151 2.0 3.0 0.00 0.00 0.00 82 1041.0
20260830224814 79 160 2.0 5.0 0.00 0.00 0.00 82 1041.1
20260830224308 79 143 0.0 6.0 0.00 0.00 0.00 82 1040.9
20260830223806 80 65 3.0 3.0 0.00 0.00 0.00 81 1041.0
20260830223301 79 148 0.0 5.0 0.00 0.00 0.00 82 1041.2
20260830222755 79 186 2.0 2.0 0.00 0.00 0.00 82 1041.2
20260830222251 79 89 1.0 3.0 0.00 0.00 0.00 82 1041.5
20260830221746 79 196 1.0 6.0 0.00 0.00 0.00 83 1041.2
20260830221243 80 77 2.0 6.0 0.00 0.00 0.00 81 1041.4
20260830220738 80 173 2.0 2.0 0.00 0.00 0.00 80 1041.1
20260830220237 80 132 0.0 1.0 0.00 0.00 0.00 82 1041.4
20260830215735 80 125 5.0 6.0 0.00 0.00 0.00 80 1041.5
20260830215230 80 62 4.0 6.0 0.00 0.00 0.00 80 1041.4
20260830214726 79 114 0.0 2.0 0.00 0.00 0.00 81 1041.2
20260830214225 79 152 2.0 5.0 0.00 0.00 0.00 81 1041.6
20260830213724 79 143 3.0 6.0 0.00 0.00 0.00 80 1041.4
20260830213220 80 151 1.0 2.0 0.00 0.00 0.00 81 1041.6
20260830212716 80 155 1.0 3.0 0.00 0.00 0.00 79 1041.5
20260830212211 81 160 1.0 2.0 0.00 0.00 0.00 78 1041.4
20260830211706 81 165 3.0 5.0 0.00 0.00 0.00 77 1041.3
20260830211205 81 59 1.0 3.0 0.00 0.00 0.00 78 1041.0
20260830210701 82 152 5.0 8.0 0.00 0.00 0.00 77 1041.2
20260830210200 82 182 1.0 3.0 0.00 0.00 0.00 76 1041.0
20260830205657 80 135 0.0 3.0 0.00 0.00 0.00 80 1040.8
20260830205152 80 176 2.0 5.0 0.00 0.00 0.00 79 1041.1
20260830204652 79 119 1.0 5.0 0.00 0.00 0.00 80 1041.2
20260830204151 80 168 0.0 2.0 0.00 0.00 0.00 79 1041.5
20260830203648 79 101 0.0 1.0 0.00 0.00 0.00 80 1041.2
20260830203143 80 140 1.0 3.0 0.00 0.00 0.00 79 1041.4
20260830202642 81 149 1.0 3.0 0.00 0.00 0.00 78 1041.6
20260830202137 80 292 2.0 8.0 0.00 0.00 0.00 79 1041.6
20260830201637 80 190 3.0 6.0 0.00 0.00 0.00 78 1041.5
20260830201132 79 153 3.0 7.0 0.00 0.00 0.00 80 1041.4
20260830200627 79 204 2.0 2.0 0.00 0.00 0.00 80 1041.4
20260830200122 79 157 4.0 5.0 0.00 0.00 0.00 79 1041.6
20260830195617 80 64 2.0 5.0 0.00 0.00 0.00 80 1041.7
20260830195115 79 153 0.0 1.0 0.00 0.00 0.00 81 1041.8
20260830194614 79 50 1.0 1.0 0.00 0.00 0.00 82 1042.1
20260830194109 79 183 3.0 5.0 0.00 0.00 0.00 81 1042.1
20260830193609 78 188 0.0 5.0 0.00 0.00 0.00 82 1042.4
20260830193103 77 59 2.0 2.0 0.00 0.00 0.00 84 1042.5
20260830192554 77 156 1.0 1.0 0.00 0.00 0.00 83 1042.6
20260830192053 77 142 0.0 3.0 0.00 0.00 0.00 84 1042.5
20260830191548 77 146 0.0 1.0 0.00 0.00 0.00 84 1042.5
20260830191044 77 149 0.0 1.0 0.00 0.00 0.00 85 1042.4
20260830190539 77 146 0.0 1.0 0.00 0.00 0.00 83 1042.6
20260830190034 77 159 1.0 2.0 0.00 0.00 0.00 84 1042.4
20260830185528 76 154 3.0 5.0 0.00 0.00 0.00 84 1042.4
20260830185024 76 167 1.0 2.0 0.00 0.00 0.00 84 1042.4
20260830184522 76 155 1.0 2.0 0.00 0.00 0.00 84 1042.7
20260830184011 76 177 1.0 6.0 0.00 0.00 0.00 83 1042.6
20260830183506 77 147 1.0 2.0 0.00 0.00 0.00 83 1042.7
20260830183002 77 145 1.0 1.0 0.00 0.00 0.00 83 1042.6
20260830182457 78 52 1.0 5.0 0.00 0.00 0.00 82 1042.8
20260830181953 78 184 1.0 1.0 0.00 0.00 0.00 81 1042.7
20260830181449 79 23 1.0 5.0 0.00 0.00 0.00 79 1042.5
20260830180943 80 156 0.0 5.0 0.00 0.00 0.00 79 1042.3
20260830180442 80 174 0.0 6.0 0.00 0.00 0.00 79 1042.4
20260830175941 78 166 1.0 2.0 0.00 0.00 0.00 79 1042.4
20260830175435 77 164 1.0 5.0 0.00 0.00 0.00 82 1042.6
20260830174930 77 146 1.0 3.0 0.00 0.00 0.00 82 1042.5
20260830174426 77 167 1.0 3.0 0.00 0.00 0.00 81 1042.6
20260830173921 77 176 0.0 2.0 0.00 0.00 0.00 82 1042.4
20260830173417 77 167 2.0 2.0 0.00 0.00 0.00 82 1042.4
20260830172912 77 155 1.0 2.0 0.00 0.00 0.00 82 1042.6
20260830172409 77 175 2.0 3.0 0.00 0.00 0.00 82 1042.3
20260830171904 76 174 1.0 2.0 0.00 0.00 0.00 83 1042.3
20260830171359 76 155 2.0 6.0 0.00 0.00 0.00 83 1042.2
20260830170854 76 156 2.0 8.0 0.00 0.00 0.00 83 1042.0
20260830170353 75 174 2.0 5.0 0.00 0.00 0.00 83 1042.1
20260830165852 75 201 2.0 5.0 0.00 0.00 0.00 84 1042.2
20260830165348 75 124 1.0 2.0 0.00 0.00 0.00 84 1042.2
20260830164844 75 148 1.0 1.0 0.00 0.00 0.00 84 1042.1
20260830164340 76 180 3.0 8.0 0.00 0.00 0.00 82 1042.2
20260830163836 77 53 3.0 3.0 0.00 0.00 0.00 83 1042.5
20260830163331 76 128 0.0 5.0 0.00 0.00 0.00 83 1042.2
20260830162826 76 150 1.0 3.0 0.00 0.00 0.00 84 1042.5
20260830162323 75 125 3.0 3.0 0.00 0.00 0.00 85 1042.4
20260830161818 74 120 0.0 6.0 0.00 0.00 0.00 87 1042.7
20260830161316 73 139 1.0 3.0 0.00 0.00 0.00 87 1042.4
20260830160812 73 194 3.0 3.0 0.00 0.00 0.00 87 1042.6
20260830160307 73 75 1.0 5.0 0.00 0.00 0.00 88 1042.7
20260830155803 73 99 5.0 6.0 0.00 0.00 0.00 88 1042.3
20260830155259 73 132 4.0 6.0 0.00 0.00 0.00 87 1042.0
20260830154759 73 172 4.0 7.0 0.00 0.00 0.00 88 1042.2
20260830154255 72 48 1.0 3.0 0.00 0.00 0.00 89 1042.3
20260830153751 72 121 2.0 3.0 0.00 0.00 0.00 90 1042.2
20260830153247 72 113 3.0 6.0 0.00 0.00 0.00 90 1042.8
20260830152745 72 53 2.0 6.0 0.00 0.00 0.00 89 1042.6
20260830152240 72 109 3.0 5.0 0.00 0.00 0.00 89 1042.6
20260830151739 71 154 2.0 2.0 0.00 0.00 0.00 91 1042.6
20260830151239 71 40 2.0 2.0 0.00 0.00 0.00 91 1042.8
20260830150734 70 81 1.0 2.0 0.00 0.00 0.00 92 1042.6
20260830150233 71 158 1.0 3.0 0.00 0.00 0.00 91 1042.5
20260830145728 71 134 0.0 3.0 0.00 0.00 0.00 92 1042.5